DEBNL EDSZ-LOWZ

Flight info

Callsign DEBNL
Flight time 1h 18m
Altitude 9500
Route FHD DCT TOBAD DCT NANIT
Aircraft BT36/L-SBDFGRY/S

Departure

Time 2026-05-04 08:16
Airport Rottweil-Zepfenhan Airfield (EDSZ)

Arrival

Time 2026-05-04 09:35
Airport Zell am See Airfield (LOWZ)
Time Latitude Longitude Altitude Speed Heading
2026-05-04 08:03 48.18568 8.72004 2431 ft 0 kts 326°
2026-05-04 08:10 48.18593 8.71949 2425 ft 0 kts 348°
2026-05-04 08:12 48.18626 8.71910 2424 ft 8 kts 266°
2026-05-04 08:13 48.18611 8.71800 2424 ft 10 kts 226°
2026-05-04 08:13 48.18615 8.71793 2424 ft 4 kts 80°
2026-05-04 08:14 48.18643 8.72076 2424 ft 74 kts 82°
2026-05-04 08:16 48.19348 8.83032 3632 ft 172 kts 86°
2026-05-04 08:16 48.19109 8.84757 3809 ft 173 kts 124°
2026-05-04 08:16 48.18254 8.86047 4039 ft 177 kts 143°
2026-05-04 08:17 48.17265 8.87171 4258 ft 179 kts 144°
2026-05-04 08:17 48.16276 8.88314 4480 ft 179 kts 144°
2026-05-04 08:17 48.15296 8.89457 4688 ft 179 kts 144°
2026-05-04 08:17 48.14337 8.90645 4909 ft 179 kts 141°
2026-05-04 08:19 48.07567 8.99176 6490 ft 180 kts 138°
2026-05-04 08:19 48.06628 9.00399 6666 ft 178 kts 138°
2026-05-04 08:20 48.06007 9.01200 6780 ft 178 kts 139°
2026-05-04 08:20 48.05069 9.02395 6955 ft 177 kts 139°
2026-05-04 08:20 48.04118 9.03588 7156 ft 178 kts 139°
2026-05-04 08:20 48.03183 9.04795 7335 ft 177 kts 139°
2026-05-04 08:21 48.02244 9.05985 7507 ft 177 kts 140°
2026-05-04 08:21 48.01306 9.07168 7657 ft 176 kts 140°
2026-05-04 08:21 48.00373 9.08342 7783 ft 175 kts 140°
2026-05-04 08:21 47.99446 9.09514 7914 ft 174 kts 140°
2026-05-04 08:22 47.98521 9.10682 8036 ft 174 kts 141°
2026-05-04 08:22 47.97599 9.11848 8161 ft 173 kts 141°
2026-05-04 08:24 47.90922 9.20260 7753 ft 180 kts 140°
2026-05-04 08:24 47.89965 9.21464 7627 ft 180 kts 140°
2026-05-04 08:24 47.89013 9.22664 7558 ft 177 kts 140°
2026-05-04 08:24 47.88084 9.23834 7548 ft 174 kts 140°
2026-05-04 08:25 47.87174 9.24981 7534 ft 169 kts 140°
2026-05-04 08:25 47.86279 9.26110 7534 ft 168 kts 140°
2026-05-04 08:25 47.85378 9.27243 7535 ft 170 kts 140°
2026-05-04 08:25 47.84471 9.28380 7551 ft 169 kts 140°
2026-05-04 08:26 47.83574 9.29505 7536 ft 168 kts 139°
2026-05-04 08:27 47.77313 9.37336 7550 ft 169 kts 141°
2026-05-04 08:28 47.76427 9.38439 7543 ft 168 kts 141°
2026-05-04 08:28 47.75538 9.39561 7538 ft 167 kts 140°
2026-05-04 08:28 47.74650 9.40672 7546 ft 167 kts 141°
2026-05-04 08:28 47.73757 9.41780 7539 ft 167 kts 141°
2026-05-04 08:29 47.72874 9.42891 7546 ft 166 kts 140°
2026-05-04 08:29 47.71988 9.44004 7559 ft 167 kts 141°
2026-05-04 08:29 47.71089 9.45115 7568 ft 169 kts 141°
2026-05-04 08:31 47.66933 9.54617 7543 ft 172 kts 89°
2026-05-04 08:33 47.67339 9.67035 7542 ft 172 kts 90°
2026-05-04 08:33 47.67403 9.68802 7534 ft 171 kts 90°
2026-05-04 08:35 47.67821 9.81268 7547 ft 174 kts 91°
2026-05-04 08:35 47.67880 9.83067 7555 ft 175 kts 91°
2026-05-04 08:35 47.67933 9.84880 7555 ft 176 kts 91°
2026-05-04 08:35 47.67989 9.86700 7547 ft 177 kts 90°
2026-05-04 08:37 47.68355 9.97549 7528 ft 174 kts 91°
2026-05-04 08:37 47.68412 9.99344 7531 ft 174 kts 91°
2026-05-04 08:37 47.68469 10.01143 7531 ft 175 kts 91°
2026-05-04 08:38 47.68521 10.02948 7536 ft 175 kts 91°
2026-05-04 08:38 47.68585 10.04731 7536 ft 175 kts 90°
2026-05-04 08:38 47.68639 10.06535 7531 ft 175 kts 91°
2026-05-04 08:40 47.69021 10.19160 7539 ft 176 kts 90°
2026-05-04 08:40 47.69079 10.20980 7548 ft 176 kts 90°
2026-05-04 08:40 47.69132 10.22798 7539 ft 175 kts 90°
2026-05-04 08:41 47.69180 10.24604 7537 ft 175 kts 91°
2026-05-04 08:41 47.69233 10.26405 7527 ft 174 kts 90°
2026-05-04 08:41 47.69288 10.28173 7530 ft 173 kts 90°
2026-05-04 08:41 47.69343 10.29957 7530 ft 173 kts 90°
2026-05-04 08:42 47.69415 10.31736 7538 ft 173 kts 91°
2026-05-04 08:42 47.69448 10.33521 7533 ft 173 kts 92°
2026-05-04 08:42 47.69480 10.35313 7530 ft 174 kts 92°
2026-05-04 08:42 47.69536 10.37104 7536 ft 174 kts 90°
2026-05-04 08:43 47.69596 10.38903 7529 ft 174 kts 91°
2026-05-04 08:43 47.69649 10.40699 7528 ft 174 kts 91°
2026-05-04 08:43 47.69699 10.42492 7529 ft 174 kts 92°
2026-05-04 08:43 47.69747 10.44284 7534 ft 174 kts 91°
2026-05-04 08:44 47.69796 10.46079 7531 ft 174 kts 91°
2026-05-04 08:44 47.69843 10.47880 7534 ft 174 kts 91°
2026-05-04 08:46 47.70191 10.60479 7544 ft 175 kts 90°
2026-05-04 08:46 47.70241 10.62298 7541 ft 176 kts 91°
2026-05-04 08:46 47.70278 10.64097 7534 ft 176 kts 92°
2026-05-04 08:46 47.70320 10.65910 7531 ft 176 kts 90°
2026-05-04 08:47 47.70365 10.67723 7533 ft 176 kts 91°
2026-05-04 08:47 47.70411 10.69537 7519 ft 175 kts 91°
2026-05-04 08:47 47.70460 10.71342 7526 ft 175 kts 91°
2026-05-04 08:47 47.70511 10.73143 7525 ft 175 kts 91°
2026-05-04 08:48 47.70556 10.74944 7537 ft 175 kts 91°
2026-05-04 08:48 47.70601 10.76751 7535 ft 175 kts 91°
2026-05-04 08:48 47.70644 10.78558 7533 ft 175 kts 91°
2026-05-04 08:48 47.70695 10.80341 7541 ft 176 kts 90°
2026-05-04 08:49 47.70740 10.82153 7536 ft 175 kts 91°
2026-05-04 08:50 47.70987 10.92990 7536 ft 175 kts 92°
2026-05-04 08:50 47.71028 10.94793 7531 ft 174 kts 90°
2026-05-04 08:51 47.71077 10.96595 7533 ft 174 kts 90°
2026-05-04 08:51 47.71134 10.98390 7535 ft 174 kts 90°
2026-05-04 08:51 47.71191 11.00184 7531 ft 174 kts 92°
2026-05-04 08:51 47.71212 11.01990 7553 ft 176 kts 92°
2026-05-04 08:52 47.71222 11.03788 7547 ft 177 kts 93°
2026-05-04 08:52 47.71262 11.05616 7542 ft 177 kts 90°
2026-05-04 08:52 47.71314 11.07446 7546 ft 177 kts 91°
2026-05-04 08:52 47.71360 11.09281 7544 ft 178 kts 91°
2026-05-04 08:53 47.71406 11.11108 7536 ft 177 kts 92°
2026-05-04 08:54 47.71684 11.23867 7542 ft 177 kts 91°
2026-05-04 08:55 47.71722 11.25696 7512 ft 175 kts 91°
2026-05-04 08:55 47.71756 11.27497 7514 ft 174 kts 93°
2026-05-04 08:55 47.71789 11.29294 7527 ft 174 kts 92°
2026-05-04 08:55 47.71823 11.31074 7538 ft 175 kts 91°
2026-05-04 08:57 47.72096 11.43933 7548 ft 178 kts 92°
2026-05-04 09:01 47.72532 11.69548 7547 ft 175 kts 93°
2026-05-04 09:01 47.72557 11.71354 7551 ft 175 kts 92°
2026-05-04 09:01 47.72603 11.73168 7545 ft 176 kts 91°
2026-05-04 09:01 47.72638 11.74982 7551 ft 176 kts 91°
2026-05-04 09:02 47.72665 11.76794 7548 ft 176 kts 93°
2026-05-04 09:02 47.72686 11.78616 7550 ft 176 kts 93°
2026-05-04 09:02 47.72712 11.80428 7532 ft 175 kts 91°
2026-05-04 09:02 47.72739 11.82241 7539 ft 176 kts 93°
2026-05-04 09:03 47.72766 11.84039 7538 ft 176 kts 91°
2026-05-04 09:03 47.72801 11.85856 7542 ft 176 kts 91°
2026-05-04 09:03 47.72818 11.87680 7557 ft 178 kts 93°
2026-05-04 09:03 47.72841 11.89518 7545 ft 178 kts 91°
2026-05-04 09:04 47.72874 11.91352 7547 ft 178 kts 92°
2026-05-04 09:04 47.72905 11.93184 7535 ft 177 kts 91°
2026-05-04 09:04 47.72934 11.95007 7534 ft 176 kts 92°
2026-05-04 09:04 47.72961 11.96836 7548 ft 177 kts 92°
2026-05-04 09:05 47.72987 11.98658 7519 ft 176 kts 91°
2026-05-04 09:05 47.73011 12.00472 7545 ft 176 kts 92°
2026-05-04 09:05 47.73039 12.02288 7532 ft 175 kts 93°
2026-05-04 09:05 47.73056 12.03488 7532 ft 175 kts 92°
2026-05-04 09:06 47.73077 12.05297 7506 ft 173 kts 93°
2026-05-04 09:07 47.69673 12.15344 7532 ft 164 kts 158°
2026-05-04 09:08 47.68619 12.15999 7543 ft 164 kts 160°
2026-05-04 09:08 47.67557 12.16616 7534 ft 163 kts 161°
2026-05-04 09:08 47.66499 12.17219 7537 ft 163 kts 161°
2026-05-04 09:08 47.65435 12.17812 7548 ft 164 kts 161°
2026-05-04 09:09 47.64326 12.18199 7537 ft 165 kts 174°
2026-05-04 09:09 47.63182 12.18110 7537 ft 165 kts 188°
2026-05-04 09:09 47.62059 12.17796 7528 ft 163 kts 192°
2026-05-04 09:09 47.60950 12.17418 7533 ft 163 kts 193°
2026-05-04 09:10 47.59854 12.17018 7528 ft 162 kts 194°
2026-05-04 09:10 47.58775 12.16604 7548 ft 163 kts 197°
2026-05-04 09:10 47.57752 12.15843 7546 ft 165 kts 208°
2026-05-04 09:10 47.56750 12.14978 7560 ft 168 kts 210°
2026-05-04 09:11 47.55747 12.14090 7543 ft 168 kts 211°
2026-05-04 09:11 47.54749 12.13195 7527 ft 167 kts 211°
2026-05-04 09:11 47.53762 12.12299 7522 ft 166 kts 211°
2026-05-04 09:11 47.52845 12.11278 7517 ft 165 kts 225°
2026-05-04 09:12 47.52112 12.09969 7523 ft 165 kts 231°
2026-05-04 09:12 47.51421 12.08601 7540 ft 167 kts 232°
2026-05-04 09:14 47.46933 11.98471 7552 ft 170 kts 241°
2026-05-04 09:14 47.46398 11.96908 7550 ft 171 kts 241°
2026-05-04 09:14 47.45865 11.95334 7545 ft 171 kts 242°
2026-05-04 09:14 47.45331 11.93753 7555 ft 172 kts 242°
2026-05-04 09:15 47.44794 11.92174 7555 ft 172 kts 242°
2026-05-04 09:15 47.44262 11.90593 7550 ft 172 kts 242°
2026-05-04 09:15 47.43745 11.89027 7532 ft 171 kts 242°
2026-05-04 09:15 47.43216 11.87460 7531 ft 170 kts 241°
2026-05-04 09:17 47.35494 11.86898 7558 ft 169 kts 165°
2026-05-04 09:18 47.34358 11.87353 7561 ft 169 kts 166°
2026-05-04 09:18 47.33225 11.87796 7544 ft 168 kts 167°
2026-05-04 09:18 47.32099 11.88231 7554 ft 167 kts 167°
2026-05-04 09:18 47.30968 11.88661 7569 ft 168 kts 167°
2026-05-04 09:19 47.29831 11.89090 7559 ft 169 kts 167°
2026-05-04 09:19 47.28702 11.89519 7555 ft 170 kts 167°
2026-05-04 09:19 47.27555 11.89953 7563 ft 171 kts 167°
2026-05-04 09:19 47.26403 11.90396 7569 ft 171 kts 167°
2026-05-04 09:20 47.25255 11.90839 7547 ft 169 kts 166°
2026-05-04 09:20 47.24117 11.91274 7555 ft 168 kts 167°
2026-05-04 09:20 47.22986 11.91710 7565 ft 168 kts 166°
2026-05-04 09:20 47.22021 11.92675 7622 ft 176 kts 129°
2026-05-04 09:21 47.21702 11.94436 7639 ft 185 kts 94°
2026-05-04 09:21 47.21794 11.96344 7656 ft 188 kts 89°
2026-05-04 09:21 47.21913 11.98254 7671 ft 188 kts 86°
2026-05-04 09:21 47.22060 12.00190 7640 ft 189 kts 87°
2026-05-04 09:22 47.22233 12.02070 7634 ft 187 kts 82°
2026-05-04 09:22 47.22461 12.03962 7617 ft 187 kts 84°
2026-05-04 09:22 47.22700 12.05816 7580 ft 182 kts 85°
2026-05-04 09:22 47.22937 12.07646 7541 ft 181 kts 83°
2026-05-04 09:23 47.23163 12.09445 7475 ft 177 kts 83°
2026-05-04 09:23 47.23412 12.11211 7487 ft 176 kts 83°
2026-05-04 09:23 47.23668 12.12981 7516 ft 178 kts 83°
2026-05-04 09:23 47.23928 12.14766 7479 ft 177 kts 82°
2026-05-04 09:25 47.25738 12.27515 7396 ft 189 kts 83°
2026-05-04 09:25 47.25999 12.29397 7330 ft 185 kts 83°
2026-05-04 09:26 47.26319 12.31216 7230 ft 182 kts 77°
2026-05-04 09:26 47.26659 12.32984 7115 ft 179 kts 77°
2026-05-04 09:26 47.27032 12.34697 7004 ft 171 kts 76°
2026-05-04 09:26 47.27410 12.36327 6870 ft 165 kts 73°
2026-05-04 09:27 47.27761 12.37926 6735 ft 164 kts 76°
2026-05-04 09:27 47.28099 12.39519 6613 ft 162 kts 76°
2026-05-04 09:27 47.28426 12.41109 6467 ft 160 kts 85°
2026-05-04 09:27 47.28304 12.42668 6336 ft 150 kts 107°
2026-05-04 09:28 47.28040 12.44140 6254 ft 149 kts 108°
2026-05-04 09:28 47.27745 12.45611 6126 ft 150 kts 111°
2026-05-04 09:28 47.27431 12.47043 5925 ft 148 kts 109°
2026-05-04 09:28 47.27195 12.48506 5737 ft 149 kts 86°
2026-05-04 09:29 47.27677 12.49822 5546 ft 149 kts 46°
2026-05-04 09:29 47.28109 12.51149 5407 ft 147 kts 92°
2026-05-04 09:29 47.27919 12.52623 5296 ft 147 kts 108°
2026-05-04 09:29 47.27630 12.54066 5141 ft 146 kts 108°
2026-05-04 09:30 47.27299 12.55477 4956 ft 145 kts 110°
2026-05-04 09:30 47.27154 12.56920 4766 ft 145 kts 82°
2026-05-04 09:30 47.27320 12.58371 4626 ft 142 kts 80°
2026-05-04 09:30 47.27517 12.59777 4476 ft 139 kts 81°
2026-05-04 09:31 47.27715 12.61152 4297 ft 136 kts 81°
2026-05-04 09:31 47.27925 12.62495 4214 ft 134 kts 80°
2026-05-04 09:31 47.27996 12.63838 4146 ft 132 kts 92°
2026-05-04 09:31 47.27930 12.65151 4055 ft 130 kts 100°
2026-05-04 09:32 47.27780 12.66453 3953 ft 129 kts 104°
2026-05-04 09:32 47.27598 12.67739 3850 ft 128 kts 103°
2026-05-04 09:34 47.28678 12.76159 2913 ft 103 kts 81°
2026-05-04 09:34 47.28824 12.77113 2785 ft 93 kts 76°
2026-05-04 09:34 47.28988 12.78049 2602 ft 91 kts 79°
2026-05-04 09:34 47.29125 12.78895 2489 ft 70 kts 86°
2026-05-04 09:35 47.29192 12.79316 2484 ft 22 kts 76°
2026-05-04 09:35 47.29236 12.79412 2483 ft 7 kts 347°
2026-05-04 09:35 47.29286 12.79387 2482 ft 4 kts 303°
2026-05-04 09:35 47.29286 12.79342 2482 ft 5 kts 256°
2026-05-04 09:37 47.29216 12.78849 2479 ft 0 kts 346°
2026-05-04 09:37 47.29217 12.78849 2479 ft 0 kts 346°